Weather History for KHHF - February, 2014

Change the Weather History Date:

Monday, February 10, 2014

  Actual Average (KPPA) Record (KPPA)
Temperature  
Mean Temperature 18 °F -  
Max Temperature 21 °F 50 °F 82 °F (1976)
Min Temperature 15 °F 23 °F -2 °F (2011)
Degree Days  
Heating Degree Days 47    
Moisture  
Dew Point 15 °F    
Average Humidity 87    
Maximum Humidity 94    
Minimum Humidity 80    
Precipitation  
Precipitation 0.00 in - - ()
Sea Level Pressure  
Sea Level Pressure 30.27 in    
Wind  
Wind Speed 7 mph (NE)    
Max Wind Speed 13 mph    
Max Gust Speed -    
Visibility 7 miles    
Events Snow    
Averages and records for this station are not official NWS values.
T = Trace of Precipitation, MM = Missing Value Source: NWS Daily Summary

Daily Weather History Graph

Daily Weather History Graph

Search for Another Location

Airport or City:

Trip Planner

Search our weather history database for the weather conditions in past years. The results will help you decide how hot, cold, wet, or windy it might be!

Date:

Astronomy

Feb. 10, 2014 Rise Set
Actual Time 7:33 AM CST 6:18 PM CST
Civil Twilight 7:07 AM CST 6:44 PM CST
Nautical Twilight 6:37 AM CST 7:14 PM CST
Astronomical Twilight 6:07 AM CST 7:44 PM CST
Moon 2:51 PM CST (2/10) 4:25 AM CST (2/10)
Length of Visible Light 11h 37m
Length of Day
10h 44m
Waxing Gibbous, 85% of the Moon is Illuminated
Feb 10
Waxing Gibbous
Feb 14
Full
Feb 22
Last Quarter
Mar 1
New
Mar 8
First Quarter

Hourly Weather History & Observations

Time (CST) Temp. Windchill Dew Point Humidity Pressure Visibility Wind Dir Wind Speed Gust Speed Precip Events Conditions
12:15 AM 19.9 °F 11.1 °F 18.5 °F 94% 30.27 in 4.0 mi NNE 6.9 mph - N/A   Overcast
12:35 AM 19.6 °F 11.7 °F 18.1 °F 94% 30.27 in 4.0 mi NNE 5.8 mph - N/A   Overcast
12:55 AM 19.6 °F 10.6 °F 18.1 °F 94% 30.26 in 5.0 mi NNE 6.9 mph - N/A   Overcast
1:15 AM 19.2 °F 12.5 °F 17.6 °F 93% 30.26 in 5.0 mi NE 4.6 mph - N/A   Overcast
1:35 AM 19.2 °F 14.1 °F 17.6 °F 93% 30.25 in 4.0 mi NNE 3.5 mph - N/A   Overcast
1:55 AM 19.2 °F 10.2 °F 17.6 °F 93% 30.26 in 4.0 mi NNE 6.9 mph - N/A   Overcast
2:15 AM 19.0 °F 10.0 °F 17.4 °F 93% 30.28 in 4.0 mi NNE 6.9 mph - N/A   Overcast
2:35 AM 19.0 °F 9.0 °F 17.4 °F 93% 30.27 in 4.0 mi NNE 8.1 mph - N/A   Overcast
2:55 AM 19.0 °F 9.0 °F 17.6 °F 94% 30.28 in 4.0 mi North 8.1 mph - N/A   Overcast
3:15 AM 18.9 °F 8.8 °F 17.4 °F 94% 30.27 in 4.0 mi North 8.1 mph - N/A   Overcast
3:35 AM 18.5 °F 6.8 °F 17.1 °F 94% 30.27 in 4.0 mi North 10.4 mph - N/A   Overcast
3:55 AM 18.3 °F 7.3 °F 16.7 °F 93% 30.27 in 4.0 mi NNE 9.2 mph - N/A   Overcast
4:15 AM 18.0 °F 5.4 °F 16.3 °F 93% 30.27 in 4.0 mi NNE 11.5 mph - N/A Snow Light Snow
4:35 AM 17.8 °F 4.6 °F 16.0 °F 93% 30.27 in 5.0 mi NNE 12.7 mph - N/A   Overcast
4:55 AM 17.6 °F 7.3 °F 15.8 °F 93% 30.27 in 5.0 mi North 8.1 mph - N/A   Overcast
5:15 AM 17.4 °F 7.1 °F 15.8 °F 93% 30.27 in 4.0 mi NNE 8.1 mph - N/A   Overcast
5:35 AM 17.1 °F 6.6 °F 15.4 °F 93% 30.26 in 5.0 mi NNE 8.1 mph - N/A   Overcast
5:55 AM 16.7 °F 7.2 °F 14.9 °F 93% 30.27 in 5.0 mi NNE 6.9 mph - N/A   Overcast
6:15 AM 16.7 °F 5.3 °F 14.9 °F 93% 30.27 in 5.0 mi NNE 9.2 mph - N/A   Overcast
6:35 AM 16.3 °F 4.9 °F 14.4 °F 92% 30.27 in 7.0 mi NNE 9.2 mph - N/A   Overcast
6:55 AM 16.2 °F 7.6 °F 14.0 °F 91% 30.28 in 7.0 mi NNE 5.8 mph - N/A   Overcast
7:15 AM 16.2 °F 5.5 °F 13.8 °F 90% 30.29 in 7.0 mi NNE 8.1 mph - N/A   Overcast
7:35 AM 16.0 °F 6.3 °F 13.5 °F 90% 30.30 in 7.0 mi NNE 6.9 mph - N/A   Overcast
7:55 AM 15.8 °F 6.1 °F 12.7 °F 88% 30.29 in 10.0 mi NNE 6.9 mph - N/A   Overcast
8:15 AM 16.2 °F 7.6 °F 12.7 °F 86% 30.30 in 7.0 mi NNE 5.8 mph - N/A Snow Light Snow
8:35 AM 16.3 °F 5.7 °F 13.1 °F 87% 30.31 in 7.0 mi NNE 8.1 mph - N/A Snow Light Snow
8:55 AM 16.2 °F 6.5 °F 12.6 °F 86% 30.31 in 10.0 mi NNE 6.9 mph - N/A   Overcast
9:15 AM 16.3 °F 5.7 °F 12.7 °F 86% 30.30 in 7.0 mi NE 8.1 mph - N/A   Overcast
9:35 AM 16.5 °F 6.9 °F 12.7 °F 85% 30.29 in 4.0 mi NE 6.9 mph - N/A Snow Light Snow
9:55 AM 16.7 °F 9.6 °F 12.9 °F 85% 30.30 in 4.0 mi NE 4.6 mph - N/A Snow Light Snow
10:15 AM 17.4 °F 9.1 °F 13.5 °F 84% 30.29 in 5.0 mi ENE 5.8 mph - N/A Snow Light Snow
10:35 AM 17.4 °F 10.4 °F 13.1 °F 83% 30.31 in 7.0 mi NE 4.6 mph - N/A Snow Light Snow
10:55 AM 17.8 °F 12.5 °F 13.5 °F 83% 30.31 in 5.0 mi NE 3.5 mph - N/A Snow Light Snow
11:15 AM 18.0 °F 12.7 °F 13.5 °F 83% 30.31 in 3.0 mi NNE 3.5 mph - N/A Snow Light Snow
11:35 AM 18.5 °F 10.4 °F 13.8 °F 82% 30.30 in 3.0 mi NNE 5.8 mph - N/A Snow Light Snow
11:55 AM 18.5 °F - 13.8 °F 82% 30.29 in 2.5 mi Calm Calm - N/A Snow Light Snow
12:15 PM 18.7 °F - 14.0 °F 82% 30.28 in 3.0 mi Calm Calm - N/A Snow Light Snow
12:35 PM 19.0 °F - 14.0 °F 81% 30.28 in 3.0 mi Calm Calm - N/A Snow Light Snow
12:55 PM 19.2 °F 12.5 °F 13.8 °F 80% 30.27 in 7.0 mi NE 4.6 mph - N/A Snow Light Snow
1:15 PM 19.8 °F 14.7 °F 14.5 °F 80% 30.25 in 7.0 mi NE 3.5 mph - N/A Snow Light Snow
1:35 PM 19.9 °F 14.9 °F 14.7 °F 80% 30.25 in 7.0 mi NE 3.5 mph - N/A Snow Light Snow
1:55 PM 20.3 °F 13.8 °F 15.1 °F 80% 30.24 in 10.0 mi NNE 4.6 mph - N/A   Overcast
2:15 PM 20.3 °F 13.8 °F 15.1 °F 80% 30.22 in 10.0 mi ENE 4.6 mph - N/A   Overcast
2:35 PM 20.7 °F 11.9 °F 15.4 °F 80% 30.21 in 10.0 mi NE 6.9 mph - N/A   Overcast
2:55 PM 21.2 °F 16.4 °F 16.0 °F 80% 30.21 in 10.0 mi NE 3.5 mph - N/A   Overcast
3:15 PM 21.2 °F 13.6 °F 16.5 °F 82% 30.20 in 10.0 mi ENE 5.8 mph - N/A   Overcast
3:35 PM 21.6 °F 13.0 °F 16.7 °F 82% 30.21 in 10.0 mi ENE 6.9 mph - N/A   Overcast
3:55 PM 21.6 °F 13.0 °F 16.7 °F 82% 30.21 in 10.0 mi East 6.9 mph - N/A   Overcast
4:15 PM 21.6 °F 12.1 °F 17.1 °F 83% 30.20 in 10.0 mi East 8.1 mph - N/A   Overcast
4:35 PM 21.2 °F 10.9 °F 17.2 °F 85% 30.20 in 10.0 mi NE 9.2 mph - N/A   Overcast
4:55 PM 21.2 °F 10.9 °F 17.4 °F 85% 30.20 in 10.0 mi ENE 9.2 mph - N/A   Overcast
5:15 PM 21.2 °F 10.9 °F 17.6 °F 86% 30.21 in 10.0 mi ENE 9.2 mph - N/A   Overcast
5:35 PM 20.8 °F 11.2 °F 17.2 °F 86% 30.22 in 10.0 mi ENE 8.1 mph - N/A   Overcast
5:55 PM 20.8 °F 12.1 °F 17.2 °F 86% 30.22 in 10.0 mi ENE 6.9 mph - N/A   Overcast
6:15 PM 20.7 °F 11.0 °F 17.1 °F 86% 30.23 in 7.0 mi East 8.1 mph - N/A   Overcast
6:35 PM 20.7 °F 11.0 °F 16.7 °F 85% 30.25 in 10.0 mi ENE 8.1 mph - N/A   Overcast
6:55 PM 20.5 °F 11.7 °F 17.1 °F 87% 30.25 in 10.0 mi NE 6.9 mph - N/A   Overcast
7:15 PM 20.3 °F 9.0 °F 16.7 °F 86% 30.26 in 10.0 mi NE 10.4 mph - N/A   Overcast
7:35 PM 20.3 °F 12.5 °F 16.7 °F 86% 30.27 in 10.0 mi ENE 5.8 mph - N/A   Overcast
7:55 PM 19.9 °F 11.1 °F 16.5 °F 87% 30.28 in 10.0 mi NE 6.9 mph - N/A   Overcast
8:15 PM 19.9 °F 11.1 °F 16.3 °F 86% 30.29 in 10.0 mi NE 6.9 mph - N/A   Overcast
8:35 PM 19.2 °F 8.4 °F 15.4 °F 85% 30.28 in 10.0 mi NE 9.2 mph - N/A   Overcast
8:55 PM 19.0 °F 10.0 °F 14.9 °F 84% 30.28 in 10.0 mi NE 6.9 mph - N/A   Overcast
9:15 PM 19.0 °F 10.0 °F 15.1 °F 85% 30.29 in 10.0 mi NE 6.9 mph - N/A   Overcast
9:35 PM 19.0 °F 10.0 °F 14.9 °F 84% 30.31 in 10.0 mi NE 6.9 mph - N/A   Overcast
9:55 PM 18.9 °F 10.8 °F 14.9 °F 85% 30.32 in 10.0 mi NNE 5.8 mph - N/A   Overcast
10:15 PM 18.7 °F 9.5 °F 14.5 °F 84% 30.32 in 10.0 mi NE 6.9 mph - N/A   Overcast
10:35 PM 18.9 °F 9.8 °F 14.7 °F 84% 30.32 in 10.0 mi NNE 6.9 mph - N/A   Overcast
10:55 PM 18.7 °F 10.6 °F 14.7 °F 85% 30.31 in 10.0 mi NE 5.8 mph - N/A   Overcast
11:15 PM 18.9 °F 10.8 °F 14.9 °F 85% 30.31 in 10.0 mi NNE 5.8 mph - N/A   Overcast
11:35 PM 18.9 °F 9.8 °F 15.3 °F 86% 30.31 in 10.0 mi NNE 6.9 mph - N/A   Overcast
11:55 PM 18.5 °F 8.4 °F 14.5 °F 85% 30.31 in 10.0 mi NE 8.1 mph - N/A   Overcast